Weather in Krasulino

Russia / Kemerovo Oblast     54°01′29″N   87°04′47″E
temp.,
°C
wind,
m/s
gust,
m/s
humid.,
%
clouds,
%
prec.,
mm/h
press.,
hPa
HPBL,
m
28 february, sun
sun2801:00−23ssw3596100 0.1 104098
04:00−26ssw239695 0.0 104019
07:00−28sse229861 0.0 104119
10:00−24se239889 0.0 103990
13:00−17sse348994 0.0 1036313
16:00−12sse368277 0.0 1033576
19:00−13sse238589 0.0 103028
22:00−12se3791100 0.1 1027207
1 march, mon
mon101:00−12se3696100 0.4 1024190
04:00−11se2596100 0.4 1021133
07:00−9se3796100 1.1 1018253
10:00−7sse4895100 1.1 1015365
13:00−3ssw5993100 2.8 1012748
16:00−3sw61193100 0.6 1011983
19:00−3sw61491100 0.8 1010719
22:00−3sw6149193 0.1 1008681
2 march, tue
tue201:00−3sw7168997 0.1 1007800
04:00−3wsw81590100 0.8 1007822
07:00−4wsw61488100 0.8 1010606
10:00−4wsw5118899 0.0 10131023
13:00−5wsw71084100 0.1 1015954
16:00−6wsw6985100 0.2 1015797
19:00−9wsw3592100 0.3 1016134
22:00−11sw2395100 0.2 101760
3 march, wed
wed301:00−13sw229599 0.3 101623
04:00−13wsw1196100 0.2 101622
07:00−13s0196100 0.6 101720
10:00−11s1193100 0.2 1016125
13:00−8ssw1288100 0.3 1017378
16:00−5sw2490100 0.1 1017449
19:00−8wsw4889100 0.2 1020224
22:00−11sw369498 0.1 1023154
4 march, thu
thu401:00−12ssw3695100 0.3 1025172
04:00−14s3595100 0.1 1026122
07:00−15s3696100 0.3 1027195
10:00−13sse3692100 0.1 1026232
13:00−8sse4688100 0.1 1025421
16:00−4s4680100 0.0 1023862
19:00−6se3485100 0.0 102260
22:00−8sse2286100 0.0 102121